Terug naar catalogus

TIGRISAT

ActiefWetenschapSSO
NORAD 40043·PAYLOAD·🇮🇶 Iraq

Gelanceerd Jun 19, 2014 vanaf Dombarovsky

Loading…

Volgende Passages (komende 24 uur)

TLE

VersSource: Space-Track

Epoch: Sep 14, 2026, 09:04 UTC

1 40043U 14033AK  26257.37845701  .00001722  00000-0  20177-3 0  9991
2 40043  97.7961  45.4299 0049852 140.7285 219.7563 14.85431457658868

Volg TIGRISAT in realtime met AllMySat

Download on the App Store